• In Austria
  • List of Countries
  • For 7 days
  • Water Temperature
  • Satellite Maps
  • Weather Map
  • News
  • Weather Widgets
  • user-avatar
    Login

    Hourly Weather Chester

    Today, 23 January, Tuesday

    Time Temperature Precipitation Wind Pressure Humidity
    00:00 +4°C° 0 mm 4 mps 759 mmHg 93%
    01:00 +5°C° 0 mm 4 mps 759 mmHg 93%
    02:00 +5°C° 0 mm 5 mps 758 mmHg 94%
    03:00 +6°C° 0 mm 5 mps 757 mmHg 94%
    04:00 +7°C° 0.2 mm 6 mps 757 mmHg 94%
    05:00 +8°C° 0.2 mm 6 mps 756 mmHg 94%
    06:00 +9°C° 0.2 mm 7 mps 755 mmHg 94%
    07:00 +9°C° 0.1 mm 7 mps 755 mmHg 93%
    08:00 +9°C° 0.1 mm 7 mps 755 mmHg 93%
    09:00 +10°C° 0.1 mm 7 mps 754 mmHg 93%
    10:00 +10°C° 0 mm 7 mps 754 mmHg 91%
    11:00 +10°C° 0 mm 7 mps 754 mmHg 89%
    12:00 +11°C° 0 mm 7 mps 754 mmHg 88%
    13:00 +11°C° 0.1 mm 7 mps 754 mmHg 87%
    14:00 +11°C° 0.1 mm 8 mps 754 mmHg 86%
    15:00 +11°C° 0.1 mm 8 mps 754 mmHg 86%
    16:00 +10°C° 0.2 mm 8 mps 754 mmHg 86%
    17:00 +10°C° 0.2 mm 7 mps 755 mmHg 86%
    18:00 +9°C° 0.2 mm 7 mps 755 mmHg 86%
    19:00 +9°C° 0 mm 7 mps 755 mmHg 87%
    20:00 +8°C° 0 mm 6 mps 755 mmHg 88%
    21:00 +8°C° 0 mm 5 mps 755 mmHg 89%
    22:00 +8°C° 0 mm 6 mps 755 mmHg 89%
    23:00 +8°C° 0 mm 6 mps 754 mmHg 89%

    Tomorrow, 24 January, Wednesday

    Time Temperature Precipitation Wind Pressure Humidity
    00:00 +8°C° 0 mm 7 mps 754 mmHg 88%
    01:00 +9°C° 0 mm 8 mps 752 mmHg 87%
    02:00 +8°C° 0 mm 9 mps 751 mmHg 86%
    03:00 +9°C° 0 mm 10 mps 749 mmHg 84%
    04:00 +9°C° 0.5 mm 11 mps 748 mmHg 83%
    05:00 +10°C° 0.5 mm 12 mps 746 mmHg 81%
    06:00 +12°C° 0.5 mm 13 mps 744 mmHg 80%
    07:00 +9°C° 2.5 mm 12 mps 745 mmHg 80%
    08:00 +8°C° 2.5 mm 11 mps 745 mmHg 80%
    09:00 +7°C° 2.5 mm 10 mps 745 mmHg 80%
    10:00 +7°C° 0.3 mm 10 mps 746 mmHg 76%
    11:00 +6°C° 0.3 mm 9 mps 746 mmHg 72%
    12:00 +6°C° 0.3 mm 9 mps 747 mmHg 69%
    13:00 +6°C° 0 mm 9 mps 747 mmHg 69%
    14:00 +6°C° 0 mm 9 mps 747 mmHg 70%
    15:00 +6°C° 0 mm 9 mps 747 mmHg 70%
    16:00 +6°C° 0.1 mm 8 mps 748 mmHg 72%
    17:00 +5°C° 0.1 mm 8 mps 748 mmHg 74%
    18:00 +5°C° 0.1 mm 7 mps 748 mmHg 76%
    19:00 +4°C° 0 mm 7 mps 749 mmHg 76%
    20:00 +4°C° 0 mm 7 mps 749 mmHg 76%
    21:00 +4°C° 0 mm 7 mps 749 mmHg 76%
    22:00 +4°C° 0.1 mm 7 mps 749 mmHg 76%
    23:00 +4°C° 0.1 mm 7 mps 749 mmHg 76%

    Day after tomorrow, 25 January, Thursday

    Time Temperature Precipitation Wind Pressure Humidity
    00:00 +4°C° 0.1 mm 8 mps 749 mmHg 76%
    01:00 +3°C° 0 mm 7 mps 749 mmHg 76%
    02:00 +3°C° 0 mm 7 mps 749 mmHg 76%
    03:00 +3°C° 0 mm 7 mps 749 mmHg 76%
    04:00 +3°C° 0 mm 7 mps 749 mmHg 77%
    05:00 +3°C° 0 mm 7 mps 749 mmHg 77%
    06:00 +3°C° 0 mm 7 mps 748 mmHg 78%
    07:00 +3°C° 0 mm 7 mps 749 mmHg 77%
    08:00 +3°C° 0 mm 7 mps 749 mmHg 77%
    09:00 +3°C° 0 mm 7 mps 749 mmHg 77%
    10:00 +4°C° 0 mm 8 mps 749 mmHg 74%
    11:00 +5°C° 0 mm 8 mps 749 mmHg 70%
    12:00 +6°C° 0 mm 9 mps 749 mmHg 67%
    13:00 +6°C° 0.2 mm 8 mps 749 mmHg 69%
    14:00 +6°C° 0.2 mm 7 mps 749 mmHg 70%
    15:00 +5°C° 0.2 mm 7 mps 749 mmHg 72%
    16:00 +5°C° 0.2 mm 6 mps 750 mmHg 76%
    17:00 +5°C° 0.2 mm 5 mps 751 mmHg 79%
    18:00 +3°C° 0.2 mm 5 mps 751 mmHg 83%
    19:00 +3°C° 0.2 mm 5 mps 752 mmHg 83%
    20:00 +3°C° 0.2 mm 5 mps 753 mmHg 84%
    21:00 +3°C° 0.2 mm 5 mps 753 mmHg 85%
    22:00 +3°C° 0.1 mm 4 mps 754 mmHg 85%
    23:00 +3°C° 0.1 mm 4 mps 755 mmHg 85%

    26 January, Friday

    Time Temperature Precipitation Wind Pressure Humidity
    00:00 +3°C° 0.1 mm 4 mps 755 mmHg 85%
    01:00 +3°C° 0 mm 4 mps 756 mmHg 86%
    02:00 +2°C° 0 mm 3 mps 756 mmHg 87%
    03:00 +2°C° 0 mm 3 mps 757 mmHg 89%
    04:00 +2°C° 0 mm 3 mps 758 mmHg 90%
    05:00 +2°C° 0 mm 3 mps 759 mmHg 91%
    06:00 +2°C° 0 mm 3 mps 759 mmHg 92%
    07:00 +2°C° 0 mm 3 mps 761 mmHg 91%
    08:00 +3°C° 0 mm 3 mps 762 mmHg 91%
    09:00 +3°C° 0 mm 3 mps 763 mmHg 91%
    10:00 +4°C° 0 mm 3 mps 763 mmHg 85%
    11:00 +5°C° 0 mm 3 mps 763 mmHg 80%
    12:00 +6°C° 0 mm 4 mps 764 mmHg 75%
    13:00 +6°C° 0 mm 4 mps 764 mmHg 75%
    14:00 +6°C° 0 mm 4 mps 764 mmHg 75%
    15:00 +5°C° 0 mm 3 mps 765 mmHg 76%
    16:00 +5°C° 0 mm 3 mps 765 mmHg 78%
    17:00 +5°C° 0 mm 2 mps 765 mmHg 81%
    18:00 +4°C° 0 mm 2 mps 765 mmHg 83%
    19:00 +4°C° 0 mm 2 mps 765 mmHg 84%
    20:00 +4°C° 0 mm 2 mps 766 mmHg 86%
    21:00 +3°C° 0 mm 2 mps 766 mmHg 87%
    22:00 +4°C° 0.1 mm 2 mps 766 mmHg 88%
    23:00 +4°C° 0.1 mm 2 mps 766 mmHg 89%

    27 January, Saturday

    Time Temperature Precipitation Wind Pressure Humidity
    00:00 +4°C° 0.1 mm 2 mps 766 mmHg 90%
    01:00 +3°C° 0 mm 3 mps 765 mmHg 91%
    02:00 +3°C° 0 mm 3 mps 765 mmHg 92%
    03:00 +3°C° 0 mm 3 mps 765 mmHg 93%
    04:00 +3°C° 0 mm 3 mps 765 mmHg 93%
    05:00 +3°C° 0 mm 3 mps 765 mmHg 94%
    06:00 +3°C° 0 mm 3 mps 766 mmHg 95%
    07:00 +3°C° 0 mm 3 mps 766 mmHg 95%
    08:00 +4°C° 0 mm 3 mps 766 mmHg 95%
    09:00 +4°C° 0 mm 3 mps 766 mmHg 96%
    10:00 +5°C° 0.1 mm 4 mps 766 mmHg 94%
    11:00 +6°C° 0.1 mm 4 mps 766 mmHg 93%
    12:00 +7°C° 0.1 mm 4 mps 766 mmHg 91%
    13:00 +7°C° 0.3 mm 5 mps 766 mmHg 92%
    14:00 +7°C° 0.3 mm 5 mps 765 mmHg 92%
    15:00 +7°C° 0.3 mm 6 mps 765 mmHg 92%
    16:00 +8°C° 0.2 mm 6 mps 765 mmHg 92%
    17:00 +9°C° 0.2 mm 6 mps 765 mmHg 93%
    18:00 +9°C° 0.2 mm 6 mps 765 mmHg 94%
    19:00 +9°C° 0.1 mm 5 mps 765 mmHg 94%
    20:00 +10°C° 0.1 mm 5 mps 766 mmHg 94%
    21:00 +10°C° 0.1 mm 5 mps 766 mmHg 94%
    22:00 +10°C° 0.1 mm 5 mps 767 mmHg 94%
    23:00 +10°C° 0.1 mm 5 mps 767 mmHg 94%

    28 January, Sunday

    Time Temperature Precipitation Wind Pressure Humidity
    00:00 +10°C° 0.1 mm 5 mps 767 mmHg 94%
    01:00 +10°C° 0 mm 5 mps 768 mmHg 93%
    02:00 +10°C° 0 mm 5 mps 768 mmHg 93%
    03:00 +10°C° 0 mm 6 mps 768 mmHg 92%
    04:00 +10°C° 0 mm 6 mps 768 mmHg 92%
    05:00 +10°C° 0 mm 6 mps 769 mmHg 93%
    06:00 +10°C° 0 mm 6 mps 769 mmHg 93%
    07:00 +10°C° 0 mm 5 mps 769 mmHg 92%
    08:00 +10°C° 0 mm 5 mps 770 mmHg 92%
    09:00 +10°C° 0 mm 5 mps 770 mmHg 92%
    10:00 +12°C° 0 mm 5 mps 771 mmHg 89%
    11:00 +11°C° 0 mm 6 mps 771 mmHg 87%
    12:00 +13°C° 0 mm 6 mps 771 mmHg 84%
    13:00 +13°C° 0 mm 6 mps 771 mmHg 84%
    14:00 +11°C° 0 mm 6 mps 771 mmHg 84%
    15:00 +11°C° 0 mm 6 mps 771 mmHg 84%
    16:00 +10°C° 0 mm 5 mps 771 mmHg 85%
    17:00 +10°C° 0 mm 5 mps 771 mmHg 87%
    18:00 +9°C° 0 mm 5 mps 771 mmHg 88%
    19:00 +9°C° 0 mm 5 mps 771 mmHg 89%
    20:00 +8°C° 0 mm 4 mps 771 mmHg 90%
    21:00 +8°C° 0 mm 4 mps 771 mmHg 91%
    22:00 +8°C° 0 mm 5 mps 771 mmHg 91%
    23:00 +8°C° 0 mm 5 mps 771 mmHg 91%
    Show more